EW9765 Weather Reports


Display with metric or nautical units.
time (UTC)temp
F
wind
direction
speed
MPH
gust
MPH
rain 1hr
in
rain 24hr
in
rain mn
in
humidity
%
barometer
mb
20260504041607 53 281 5.0 11.0 0.00 0.00 0.00 67 1008.5
20260504040056 53 209 4.0 10.0 0.00 0.00 0.00 67 1008.6
20260504034609 54 231 3.0 9.0 0.00 0.00 0.00 66 1008.6
20260504033056 54 190 4.0 7.0 0.00 0.00 0.00 66 1008.5
20260504031553 53 214 3.0 11.0 0.00 0.00 0.00 67 1008.5
20260504030052 53 194 3.0 7.0 0.00 0.00 0.00 67 1008.7
20260504024553 54 209 3.0 7.0 0.00 0.00 0.00 67 1008.7
20260504023050 54 225 4.0 11.0 0.00 0.00 0.00 66 1008.8
20260504021552 54 201 4.0 9.0 0.00 0.00 0.00 65 1008.9
20260504020056 54 227 4.0 9.0 0.00 0.00 0.00 66 1009.0
20260504014547 54 252 5.0 13.0 0.00 0.00 0.00 66 1009.1
20260504013105 53 274 3.0 8.0 0.00 0.00 0.00 69 1009.2
20260504011546 53 286 3.0 13.0 0.00 0.00 0.00 70 1009.2
20260504010046 53 223 4.0 12.0 0.00 0.00 0.00 70 1009.2
20260504004546 53 287 5.0 12.0 0.00 0.00 0.00 70 1009.1
20260504003045 52 284 4.0 10.0 0.00 0.00 0.00 73 1009.2
20260504001548 52 328 5.0 12.0 0.00 0.00 0.00 73 1009.4
20260504000044 53 285 9.0 16.0 0.00 0.00 0.00 72 1009.5
20260503234543 53 292 5.0 14.0 0.00 0.00 0.00 72 1009.5
20260503233045 53 269 7.0 16.0 0.00 0.00 0.00 69 1009.4
20260503231542 54 263 10.0 17.0 0.00 0.00 0.00 67 1009.1
20260503230043 54 277 7.0 15.0 0.00 0.00 0.00 69 1009.5
20260503224540 54 186 7.0 18.0 0.00 0.00 0.00 68 1009.3
20260503223041 54 241 7.0 19.0 0.00 0.00 0.00 66 1009.2
20260503221546 55 327 7.0 15.0 0.00 0.00 0.00 66 1009.0
20260503220040 55 269 7.0 13.0 0.00 0.00 0.00 66 1009.1
20260503214541 55 254 6.0 13.0 0.00 0.00 0.00 66 1009.0
20260503213043 56 240 5.0 15.0 0.00 0.00 0.00 62 1009.0
20260503211537 56 142 9.0 17.0 0.00 0.00 0.00 61 1008.9
20260503210036 56 286 8.0 19.0 0.00 0.00 0.00 61 1009.0
20260503204537 56 284 7.0 16.0 0.00 0.00 0.00 62 1008.9
20260503203037 56 306 7.0 20.0 0.00 0.00 0.00 60 1009.2
20260503201532 56 281 7.0 20.0 0.00 0.00 0.00 59 1009.4
20260503200031 56 279 9.0 18.0 0.00 0.00 0.00 59 1009.7
20260503194529 57 295 8.0 15.0 0.00 0.00 0.00 58 1009.7
20260503193041 57 250 5.0 15.0 0.00 0.00 0.00 59 1010.0
20260503191549 55 277 6.0 13.0 0.00 0.00 0.00 58 1010.2
20260503190032 55 288 6.0 15.0 0.00 0.00 0.00 58 1010.5
20260503184518 56 277 9.0 13.0 0.00 0.00 0.00 56 1010.8
20260503183016 55 300 7.0 13.0 0.00 0.00 0.00 58 1010.9
20260503181513 54 296 7.0 13.0 0.00 0.00 0.00 56 1011.3
20260503180012 53 295 7.0 17.0 0.00 0.00 0.00 56 1011.5
20260503174509 53 262 6.0 15.0 0.00 0.00 0.00 57 1011.8
20260503173009 53 244 8.0 14.0 0.00 0.00 0.00 60 1011.8
20260503171507 53 278 7.0 13.0 0.00 0.00 0.00 56 1011.9
20260503160107 51 297 5.0 15.0 0.00 0.00 0.00 64 1012.8
20260503100106 33 286 0.0 1.0 0.00 0.00 0.00 100 1013.6
20260503081550 35 210 2.0 4.0 0.00 0.00 0.00 100 1013.6
20260503071544 36 200 2.0 6.0 0.00 0.00 0.00 100 1013.7
20260503054540 39 279 3.0 8.0 0.00 0.00 0.00 95 1013.9
20260503053030 39 265 2.0 6.0 0.00 0.00 0.00 94 1014.1
20260503051523 39 303 3.0 6.0 0.00 0.00 0.00 94 1014.2
20260503050023 39 279 3.0 9.0 0.00 0.00 0.00 93 1014.3
20260503044526 39 290 1.0 4.0 0.00 0.00 0.00 91 1014.4
20260503043018 39 290 3.0 7.0 0.00 0.00 0.00 91 1014.5